Tracking 19145 objects as of 26-Apr-2018
HD Live streaming from Space Station
objects crossing your sky now

COSMOS 2390

Track COSMOS 2390 now!
10-day predictions
COSMOS 2390 is classified as:


NORAD ID: 27464
Int'l Code: 2002-036A
Perigee: 1,475.6 km
Apogee: 1,513.3 km
Inclination: 82.5 °
Period: 115.7 minutes
Semi major axis: 7865 km
RCS: 0.93 m2 (medium)
Launch date: July 8, 2002
Source: Commonwealth of Independent States (former USSR) (CIS)
Launch site: PLESETSK MISSILE AND SPACE COMPLEX (PKMTR)

Store-dump communications for Russian government and military.
aabbcc
Your satellite tracking list
Your tracking list is empty




NASA's NSSDC Master Catalog

Two Line Element Set (TLE):
1 27464U 02036A   18114.75144433  .00000020  00000-0  72071-4 0  9993
2 27464  82.4882  45.2902 0024011 288.1813  71.6660 12.44566119717682
Source of the keplerian elements: AFSPC